When you browse on this site, cookies collect data to enhance your experience and personalize the content and advertising you see.
Visit our Privacy Policy to learn more. By continuing to use the site, you agree to this use of cookies and data.
  • In Romania
  • List of Countries
  • For 7 days
  • Water Temperature
  • Satellite Maps
  • Weather Map
  • Weather Widgets
  • user-avatar
    Login

    Hourly Weather Callao

    Today, 26 May, Sunday

    Time Temperature Precipitation Wind Pressure Humidity
    00:00 +9°C° 0 mm 0 mps 540 mmHg 76%
    01:00 +9°C° 0 mm 0 mps 540 mmHg 75%
    02:00 +9°C° 0 mm 0 mps 540 mmHg 75%
    03:00 +8°C° 0 mm 0 mps 539 mmHg 74%
    04:00 +8°C° 0 mm 0 mps 539 mmHg 73%
    05:00 +9°C° 0 mm 0 mps 539 mmHg 70%
    06:00 +9°C° 0 mm 0 mps 540 mmHg 67%
    07:00 +10°C° 0 mm 0 mps 540 mmHg 64%
    08:00 +13°C° 0 mm 1 mps 541 mmHg 56%
    09:00 +14°C° 0 mm 2 mps 542 mmHg 49%
    10:00 +16°C° 0 mm 2 mps 544 mmHg 42%
    11:00 +16°C° 0 mm 3 mps 543 mmHg 43%
    12:00 +17°C° 0 mm 3 mps 543 mmHg 43%
    13:00 +17°C° 0 mm 4 mps 543 mmHg 44%
    14:00 +17°C° 0 mm 3 mps 542 mmHg 47%
    15:00 +16°C° 0 mm 3 mps 542 mmHg 49%
    16:00 +16°C° 0 mm 3 mps 541 mmHg 52%
    17:00 +14°C° 0 mm 2 mps 541 mmHg 58%
    18:00 +13°C° 0 mm 1 mps 541 mmHg 65%
    19:00 +11°C° 0 mm 1 mps 540 mmHg 71%
    20:00 +10°C° 0 mm 0 mps 540 mmHg 72%
    21:00 +10°C° 0 mm 0 mps 540 mmHg 72%
    22:00 +9°C° 0 mm 0 mps 540 mmHg 73%
    23:00 +9°C° 0 mm 0 mps 540 mmHg 72%

    Tomorrow, 27 May, Monday

    Time Temperature Precipitation Wind Pressure Humidity
    00:00 +9°C° 0 mm 0 mps 540 mmHg 71%
    01:00 +9°C° 0 mm 0 mps 540 mmHg 70%
    02:00 +8°C° 0 mm 0 mps 539 mmHg 70%
    03:00 +8°C° 0 mm 0 mps 539 mmHg 70%
    04:00 +7°C° 0 mm 0 mps 538 mmHg 69%
    05:00 +8°C° 0 mm 0 mps 539 mmHg 67%
    06:00 +8°C° 0 mm 0 mps 539 mmHg 64%
    07:00 +9°C° 0 mm 0 mps 540 mmHg 61%
    08:00 +12°C° 0 mm 1 mps 541 mmHg 55%
    09:00 +14°C° 0 mm 2 mps 542 mmHg 48%
    10:00 +15°C° 0 mm 2 mps 543 mmHg 41%
    11:00 +16°C° 0 mm 3 mps 543 mmHg 43%
    12:00 +16°C° 0 mm 3 mps 543 mmHg 44%
    13:00 +15°C° 0 mm 4 mps 542 mmHg 46%
    14:00 +16°C° 0 mm 3 mps 542 mmHg 49%
    15:00 +14°C° 0 mm 3 mps 541 mmHg 52%
    16:00 +14°C° 0 mm 3 mps 540 mmHg 55%
    17:00 +14°C° 0 mm 2 mps 540 mmHg 59%
    18:00 +13°C° 0 mm 1 mps 540 mmHg 64%
    19:00 +11°C° 0 mm 0 mps 540 mmHg 68%
    20:00 +11°C° 0 mm 0 mps 540 mmHg 68%
    21:00 +10°C° 0 mm 0 mps 540 mmHg 68%
    22:00 +10°C° 0 mm 0 mps 541 mmHg 68%
    23:00 +9°C° 0 mm 0 mps 540 mmHg 68%

    Day after tomorrow, 28 May, Tuesday

    Time Temperature Precipitation Wind Pressure Humidity
    00:00 +9°C° 0 mm 0 mps 540 mmHg 69%
    01:00 +9°C° 0 mm 0 mps 539 mmHg 69%
    02:00 +8°C° 0 mm 0 mps 539 mmHg 70%
    03:00 +8°C° 0 mm 0 mps 538 mmHg 70%
    04:00 +7°C° 0 mm 0 mps 538 mmHg 71%
    05:00 +8°C° 0 mm 0 mps 538 mmHg 69%
    06:00 +9°C° 0 mm 0 mps 539 mmHg 67%
    07:00 +9°C° 0 mm 0 mps 540 mmHg 65%
    08:00 +12°C° 0 mm 1 mps 541 mmHg 59%
    09:00 +14°C° 0 mm 2 mps 542 mmHg 53%
    10:00 +15°C° 0 mm 2 mps 543 mmHg 48%
    11:00 +14°C° 0 mm 3 mps 543 mmHg 48%
    12:00 +16°C° 0 mm 3 mps 542 mmHg 48%
    13:00 +16°C° 0 mm 3 mps 542 mmHg 49%
    14:00 +14°C° 0.2 mm 3 mps 541 mmHg 52%
    15:00 +15°C° 0.2 mm 2 mps 540 mmHg 55%
    16:00 +14°C° 0.2 mm 2 mps 540 mmHg 58%
    17:00 +14°C° 0.1 mm 1 mps 540 mmHg 60%
    18:00 +13°C° 0.1 mm 1 mps 540 mmHg 62%
    19:00 +12°C° 0.1 mm 0 mps 540 mmHg 64%
    20:00 +11°C° 0 mm 0 mps 540 mmHg 65%
    21:00 +11°C° 0 mm 0 mps 540 mmHg 66%
    22:00 +12°C° 0 mm 1 mps 540 mmHg 68%
    23:00 +11°C° 0 mm 1 mps 540 mmHg 68%

    29 May, Wednesday

    Time Temperature Precipitation Wind Pressure Humidity
    00:00 +11°C° 0 mm 1 mps 540 mmHg 69%
    01:00 +11°C° 0 mm 1 mps 540 mmHg 70%
    02:00 +10°C° 0 mm 1 mps 539 mmHg 71%
    03:00 +9°C° 0 mm 0 mps 539 mmHg 71%
    04:00 +9°C° 0 mm 0 mps 539 mmHg 72%
    05:00 +9°C° 0 mm 0 mps 539 mmHg 70%
    06:00 +10°C° 0 mm 0 mps 540 mmHg 69%
    07:00 +10°C° 0 mm 0 mps 540 mmHg 67%
    08:00 +13°C° 0 mm 1 mps 541 mmHg 61%
    09:00 +14°C° 0 mm 2 mps 542 mmHg 56%
    10:00 +16°C° 0 mm 2 mps 543 mmHg 50%
    11:00 +16°C° 0 mm 3 mps 543 mmHg 50%
    12:00 +17°C° 0 mm 3 mps 542 mmHg 50%
    13:00 +17°C° 0 mm 3 mps 542 mmHg 50%
    14:00 +16°C° 0 mm 3 mps 541 mmHg 52%
    15:00 +16°C° 0 mm 3 mps 541 mmHg 55%
    16:00 +14°C° 0 mm 3 mps 540 mmHg 58%
    17:00 +14°C° 0 mm 2 mps 540 mmHg 62%
    18:00 +13°C° 0 mm 1 mps 540 mmHg 67%
    19:00 +11°C° 0 mm 0 mps 540 mmHg 72%
    20:00 +11°C° 0 mm 0 mps 540 mmHg 71%
    21:00 +11°C° 0 mm 0 mps 541 mmHg 71%
    22:00 +10°C° 0 mm 0 mps 541 mmHg 71%
    23:00 +10°C° 0 mm 0 mps 540 mmHg 72%

    30 May, Thursday

    Time Temperature Precipitation Wind Pressure Humidity
    00:00 +10°C° 0 mm 0 mps 540 mmHg 73%
    01:00 +9°C° 0 mm 0 mps 539 mmHg 73%
    02:00 +9°C° 0 mm 0 mps 539 mmHg 74%
    03:00 +8°C° 0 mm 0 mps 539 mmHg 74%
    04:00 +8°C° 0 mm 0 mps 538 mmHg 74%
    05:00 +8°C° 0 mm 0 mps 539 mmHg 71%
    06:00 +9°C° 0 mm 0 mps 539 mmHg 68%
    07:00 +9°C° 0 mm 0 mps 540 mmHg 65%
    08:00 +12°C° 0 mm 1 mps 541 mmHg 59%
    09:00 +14°C° 0 mm 2 mps 542 mmHg 52%
    10:00 +16°C° 0 mm 2 mps 543 mmHg 45%
    11:00 +16°C° 0 mm 3 mps 543 mmHg 46%
    12:00 +16°C° 0 mm 3 mps 542 mmHg 48%
    13:00 +16°C° 0 mm 3 mps 542 mmHg 49%
    14:00 +16°C° 0 mm 3 mps 542 mmHg 53%
    15:00 +14°C° 0 mm 3 mps 541 mmHg 57%
    16:00 +13°C° 0 mm 3 mps 540 mmHg 61%
    17:00 +13°C° 0 mm 2 mps 540 mmHg 67%
    18:00 +12°C° 0 mm 1 mps 540 mmHg 72%
    19:00 +10°C° 0 mm 0 mps 540 mmHg 78%
    20:00 +10°C° 0 mm 0 mps 540 mmHg 77%
    21:00 +10°C° 0 mm 0 mps 540 mmHg 76%
    22:00 +10°C° 0 mm 0 mps 540 mmHg 76%
    23:00 +9°C° 0 mm 0 mps 540 mmHg 75%

    31 May, Friday

    Time Temperature Precipitation Wind Pressure Humidity
    00:00 +9°C° 0 mm 0 mps 540 mmHg 75%
    01:00 +8°C° 0 mm 0 mps 539 mmHg 75%
    02:00 +8°C° 0 mm 0 mps 539 mmHg 74%
    03:00 +8°C° 0 mm 0 mps 538 mmHg 73%
    04:00 +7°C° 0 mm 0 mps 538 mmHg 72%
    05:00 +8°C° 0 mm 0 mps 539 mmHg 70%
    06:00 +8°C° 0 mm 0 mps 539 mmHg 67%
    07:00 +9°C° 0 mm 0 mps 540 mmHg 64%
    08:00 +12°C° 0 mm 1 mps 541 mmHg 57%
    09:00 +13°C° 0 mm 2 mps 542 mmHg 51%
    10:00 +14°C° 0 mm 3 mps 542 mmHg 45%
    11:00 +14°C° 0 mm 3 mps 542 mmHg 45%
    12:00 +16°C° 0 mm 3 mps 542 mmHg 46%
    13:00 +16°C° 0 mm 3 mps 541 mmHg 46%
    14:00 +14°C° 0 mm 3 mps 541 mmHg 50%
    15:00 +14°C° 0 mm 3 mps 540 mmHg 53%
    16:00 +13°C° 0 mm 3 mps 540 mmHg 56%
    17:00 +13°C° 0 mm 2 mps 540 mmHg 62%
    18:00 +12°C° 0 mm 1 mps 539 mmHg 68%
    19:00 +10°C° 0 mm 0 mps 539 mmHg 74%
    20:00 +10°C° 0 mm 0 mps 539 mmHg 74%
    21:00 +9°C° 0 mm 0 mps 539 mmHg 75%
    22:00 +9°C° 0 mm 0 mps 539 mmHg 75%
    23:00 +9°C° 0 mm 0 mps 539 mmHg 75%
    Show more